When you browse on this site, cookies collect data to enhance your experience and personalize the content and advertising you see.
Visit our Privacy Policy to learn more. By continuing to use the site, you agree to this use of cookies and data.
  • In United Kingdom
  • List of Countries
  • For 7 days
  • Water Temperature
  • Satellite Maps
  • Weather Map
  • Weather Widgets
  • user-avatar
    Login

    Hourly Weather Pasto

    Today, 19 April, Friday

    Time Temperature Precipitation Wind Pressure Humidity
    00:00 +12°C° 0.1 mm 1 mps 548 mmHg 94%
    01:00 +12°C° 0.1 mm 1 mps 547 mmHg 93%
    02:00 +12°C° 0.1 mm 1 mps 547 mmHg 93%
    03:00 +12°C° 0.1 mm 1 mps 547 mmHg 93%
    04:00 +11°C° 0.1 mm 1 mps 547 mmHg 92%
    05:00 +12°C° 0.1 mm 1 mps 547 mmHg 91%
    06:00 +12°C° 0.1 mm 1 mps 547 mmHg 90%
    07:00 +12°C° 0.1 mm 1 mps 548 mmHg 88%
    08:00 +14°C° 0.3 mm 1 mps 549 mmHg 84%
    09:00 +15°C° 0.3 mm 1 mps 549 mmHg 80%
    10:00 +16°C° 0.3 mm 1 mps 550 mmHg 76%
    11:00 +16°C° 0.8 mm 1 mps 550 mmHg 77%
    12:00 +18°C° 0.8 mm 1 mps 550 mmHg 77%
    13:00 +18°C° 0.8 mm 1 mps 549 mmHg 78%
    14:00 +16°C° 1.2 mm 1 mps 548 mmHg 81%
    15:00 +16°C° 1.2 mm 1 mps 548 mmHg 85%
    16:00 +15°C° 1.2 mm 1 mps 547 mmHg 88%
    17:00 +15°C° 1.4 mm 1 mps 547 mmHg 91%
    18:00 +14°C° 1.4 mm 1 mps 547 mmHg 93%
    19:00 +12°C° 1.4 mm 0 mps 547 mmHg 96%
    20:00 +12°C° 0.9 mm 0 mps 547 mmHg 96%
    21:00 +12°C° 0.9 mm 0 mps 548 mmHg 96%
    22:00 +12°C° 0.9 mm 0 mps 548 mmHg 96%
    23:00 +12°C° 0.5 mm 0 mps 548 mmHg 96%

    Tomorrow, 20 April, Saturday

    Time Temperature Precipitation Wind Pressure Humidity
    00:00 +11°C° 0.5 mm 0 mps 548 mmHg 96%
    01:00 +11°C° 0.5 mm 0 mps 548 mmHg 96%
    02:00 +11°C° 0.8 mm 0 mps 548 mmHg 96%
    03:00 +11°C° 0.8 mm 0 mps 547 mmHg 97%
    04:00 +11°C° 0.8 mm 0 mps 547 mmHg 97%
    05:00 +11°C° 1.2 mm 0 mps 547 mmHg 96%
    06:00 +11°C° 1.2 mm 0 mps 548 mmHg 95%
    07:00 +11°C° 1.2 mm 0 mps 548 mmHg 94%
    08:00 +12°C° 1.2 mm 0 mps 549 mmHg 91%
    09:00 +14°C° 1.2 mm 1 mps 550 mmHg 89%
    10:00 +14°C° 1.2 mm 1 mps 550 mmHg 86%
    11:00 +15°C° 1.8 mm 1 mps 550 mmHg 86%
    12:00 +15°C° 1.8 mm 1 mps 550 mmHg 86%
    13:00 +15°C° 1.8 mm 1 mps 549 mmHg 86%
    14:00 +14°C° 2.7 mm 1 mps 549 mmHg 89%
    15:00 +14°C° 2.7 mm 1 mps 548 mmHg 91%
    16:00 +13°C° 2.7 mm 1 mps 547 mmHg 93%
    17:00 +12°C° 1.1 mm 0 mps 547 mmHg 94%
    18:00 +12°C° 1.1 mm 0 mps 547 mmHg 95%
    19:00 +11°C° 1.1 mm 0 mps 547 mmHg 96%
    20:00 +11°C° 1.2 mm 0 mps 548 mmHg 96%
    21:00 +11°C° 1.2 mm 0 mps 548 mmHg 96%
    22:00 +11°C° 1.2 mm 0 mps 549 mmHg 96%
    23:00 +11°C° 2.2 mm 0 mps 549 mmHg 96%

    Day after tomorrow, 21 April, Sunday

    Time Temperature Precipitation Wind Pressure Humidity
    00:00 +11°C° 2.2 mm 0 mps 548 mmHg 96%
    01:00 +11°C° 2.2 mm 0 mps 548 mmHg 96%
    02:00 +11°C° 0.8 mm 0 mps 548 mmHg 95%
    03:00 +11°C° 0.8 mm 0 mps 547 mmHg 95%
    04:00 +10°C° 0.8 mm 0 mps 547 mmHg 95%
    05:00 +11°C° 0.5 mm 0 mps 547 mmHg 95%
    06:00 +11°C° 0.5 mm 0 mps 548 mmHg 94%
    07:00 +11°C° 0.5 mm 0 mps 548 mmHg 93%
    08:00 +12°C° 0.3 mm 0 mps 549 mmHg 90%
    09:00 +14°C° 0.3 mm 1 mps 550 mmHg 87%
    10:00 +14°C° 0.3 mm 1 mps 550 mmHg 83%
    11:00 +14°C° 0.6 mm 1 mps 550 mmHg 84%
    12:00 +14°C° 0.6 mm 1 mps 549 mmHg 85%
    13:00 +14°C° 0.6 mm 1 mps 549 mmHg 86%
    14:00 +14°C° 0.6 mm 1 mps 548 mmHg 87%
    15:00 +14°C° 0.6 mm 1 mps 548 mmHg 88%
    16:00 +14°C° 0.6 mm 1 mps 547 mmHg 90%
    17:00 +13°C° 0.4 mm 1 mps 547 mmHg 92%
    18:00 +12°C° 0.4 mm 0 mps 547 mmHg 94%
    19:00 +11°C° 0.4 mm 0 mps 547 mmHg 96%
    20:00 +11°C° 0.7 mm 0 mps 548 mmHg 96%
    21:00 +11°C° 0.7 mm 0 mps 548 mmHg 96%
    22:00 +11°C° 0.7 mm 0 mps 548 mmHg 96%
    23:00 +11°C° 0.4 mm 0 mps 548 mmHg 97%

    22 April, Monday

    Time Temperature Precipitation Wind Pressure Humidity
    00:00 +11°C° 0.4 mm 0 mps 548 mmHg 97%
    01:00 +11°C° 0.4 mm 0 mps 547 mmHg 98%
    02:00 +11°C° 0.4 mm 0 mps 547 mmHg 97%
    03:00 +11°C° 0.4 mm 0 mps 547 mmHg 97%
    04:00 +11°C° 0.4 mm 0 mps 547 mmHg 97%
    05:00 +11°C° 0.4 mm 0 mps 547 mmHg 96%
    06:00 +11°C° 0.4 mm 0 mps 547 mmHg 96%
    07:00 +11°C° 0.4 mm 0 mps 548 mmHg 95%
    08:00 +11°C° 0.4 mm 0 mps 548 mmHg 93%
    09:00 +13°C° 0.4 mm 1 mps 549 mmHg 90%
    10:00 +14°C° 0.4 mm 1 mps 549 mmHg 88%
    11:00 +14°C° 0.6 mm 1 mps 549 mmHg 88%
    12:00 +14°C° 0.6 mm 1 mps 548 mmHg 87%
    13:00 +14°C° 0.6 mm 2 mps 548 mmHg 87%
    14:00 +14°C° 0.5 mm 2 mps 547 mmHg 89%
    15:00 +14°C° 0.5 mm 2 mps 547 mmHg 90%
    16:00 +13°C° 0.5 mm 2 mps 546 mmHg 92%
    17:00 +13°C° 0.6 mm 1 mps 546 mmHg 93%
    18:00 +12°C° 0.6 mm 1 mps 546 mmHg 95%
    19:00 +12°C° 0.6 mm 1 mps 547 mmHg 96%
    20:00 +11°C° 0.5 mm 0 mps 547 mmHg 95%
    21:00 +11°C° 0.5 mm 0 mps 547 mmHg 95%
    22:00 +10°C° 0.5 mm 0 mps 548 mmHg 94%
    23:00 +10°C° 0.4 mm 0 mps 547 mmHg 93%

    23 April, Tuesday

    Time Temperature Precipitation Wind Pressure Humidity
    00:00 +10°C° 0.4 mm 0 mps 547 mmHg 93%
    01:00 +11°C° 0.4 mm 1 mps 547 mmHg 92%
    02:00 +10°C° 0.3 mm 0 mps 546 mmHg 92%
    03:00 +9°C° 0.3 mm 0 mps 546 mmHg 92%
    04:00 +9°C° 0.3 mm 0 mps 546 mmHg 91%
    05:00 +9°C° 0.4 mm 0 mps 546 mmHg 91%
    06:00 +10°C° 0.4 mm 1 mps 547 mmHg 91%
    07:00 +11°C° 0.4 mm 1 mps 547 mmHg 91%
    08:00 +12°C° 0.3 mm 1 mps 548 mmHg 87%
    09:00 +12°C° 0.3 mm 0 mps 549 mmHg 83%
    10:00 +13°C° 0.3 mm 0 mps 550 mmHg 79%
    11:00 +15°C° 0.2 mm 1 mps 550 mmHg 76%
    12:00 +16°C° 0.2 mm 1 mps 549 mmHg 72%
    13:00 +17°C° 0.2 mm 2 mps 549 mmHg 69%
    14:00 +17°C° 0.4 mm 2 mps 549 mmHg 73%
    15:00 +16°C° 0.4 mm 2 mps 548 mmHg 77%
    16:00 +15°C° 0.4 mm 2 mps 547 mmHg 82%
    17:00 +14°C° 0.2 mm 1 mps 547 mmHg 87%
    18:00 +13°C° 0.2 mm 1 mps 547 mmHg 91%
    19:00 +11°C° 0.2 mm 0 mps 547 mmHg 96%
    20:00 +11°C° 0.3 mm 0 mps 548 mmHg 96%
    21:00 +11°C° 0.3 mm 0 mps 548 mmHg 96%
    22:00 +11°C° 0.3 mm 0 mps 548 mmHg 96%
    23:00 +11°C° 0.2 mm 0 mps 548 mmHg 96%

    24 April, Wednesday

    Time Temperature Precipitation Wind Pressure Humidity
    00:00 +11°C° 0.2 mm 0 mps 548 mmHg 96%
    01:00 +11°C° 0.2 mm 0 mps 547 mmHg 96%
    02:00 +11°C° 0.1 mm 0 mps 547 mmHg 96%
    03:00 +11°C° 0.1 mm 0 mps 547 mmHg 96%
    04:00 +11°C° 0.1 mm 0 mps 547 mmHg 96%
    05:00 +11°C° 0.1 mm 0 mps 547 mmHg 94%
    06:00 +11°C° 0.1 mm 0 mps 548 mmHg 93%
    07:00 +13°C° 0.1 mm 1 mps 549 mmHg 92%
    08:00 +14°C° 0.2 mm 1 mps 549 mmHg 88%
    09:00 +15°C° 0.2 mm 1 mps 550 mmHg 84%
    10:00 +16°C° 0.2 mm 1 mps 551 mmHg 80%
    11:00 +16°C° 0.5 mm 1 mps 550 mmHg 81%
    12:00 +16°C° 0.5 mm 1 mps 550 mmHg 82%
    13:00 +16°C° 0.5 mm 1 mps 549 mmHg 83%
    14:00 +16°C° 0.8 mm 1 mps 549 mmHg 85%
    15:00 +15°C° 0.8 mm 1 mps 548 mmHg 87%
    16:00 +15°C° 0.8 mm 1 mps 547 mmHg 89%
    17:00 +14°C° 1.1 mm 1 mps 548 mmHg 91%
    18:00 +14°C° 1.1 mm 1 mps 548 mmHg 93%
    19:00 +13°C° 1.1 mm 1 mps 548 mmHg 95%
    20:00 +13°C° 1.3 mm 1 mps 548 mmHg 95%
    21:00 +13°C° 1.3 mm 1 mps 548 mmHg 95%
    22:00 +12°C° 1.3 mm 0 mps 549 mmHg 95%
    23:00 +12°C° 1.1 mm 0 mps 548 mmHg 95%
    Show more